Theta_e
312 311 313 316 315 314 312 311 315 319 320 323 323 324 324 325 327 324 318 323 324 324 324 326 329 327 328 327 325 323 329 334 330 323 322 317 321 318 321 327 327 328 330 331 333
313 312 310 314 315 314 313 312 310 316 319 322 322 324 323 325 326 321 326 325 322 322 323 324 322 323 325 324 329 327 329 331 330 327 322 318 320 320 325 326 329 334 331 330 332
313 313 312 310 313 314 313 313 311 310 316 318 322 323 322 323 324 324 325 326 322 321 322 322 320 317 324 325 326 329 332 332 331 330 328 320 320 318 322 323 325 332 331 328 330
313 313 313 311 311 313 313 314 312 310 313 317 320 322 322 322 328 322 322 325 325 320 321 324 323 325 322 329 327 332 330 331 333 332 327 320 314 319 320 320 320 327 331 329 327
314 313 313 311 310 311 313 313 313 311 310 315 317 321 322 323 323 322 323 323 325 322 322 322 324 326 327 324 328 329 328 327 331 332 329 318 318 318 318 315 321 329 331 330 328
314 313 312 311 309 310 312 313 313 311 309 312 317 320 321 325 322 321 323 322 325 322 322 322 323 324 326 323 325 326 327 327 325 332 321 317 318 314 315 322 329 330 330 330 330
314 313 312 312 309 308 311 312 312 311 310 310 316 318 320 321 321 322 322 323 324 324 320 321 324 325 323 325 323 325 329 328 328 324 319 314 319 314 313 323 331 331 330 330 330
313 313 311 312 309 308 311 312 311 310 311 310 315 318 320 319 320 321 321 322 323 324 322 323 323 322 323 320 320 326 327 330 328 319 317 317 333 322 312 319 327 330 329 330 328
312 313 312 311 310 308 309 311 310 309 310 311 314 316 317 317 319 320 322 323 324 324 323 325 324 322 321 322 322 323 327 327 328 322 319 317 324 323 320 312 319 326 328 330 330
309 312 312 312 310 309 309 311 308 309 311 311 313 314 313 316 316 319 321 323 323 324 325 326 326 327 323 326 329 323 326 327 327 322 317 318 320 321 320 312 311 316 324 327 330
307 312 312 312 309 310 312 311 310 309 310 309 310 312 311 314 316 318 319 321 323 325 329 327 330 330 327 325 323 322 325 326 326 323 320 319 321 320 318 316 315 311 309 318 326
308 312 312 311 309 310 310 308 308 306 310 308 310 311 312 314 316 316 319 321 323 327 327 329 331 327 325 323 323 324 325 328 324 323 321 321 320 319 315 317 316 315 313 311 310
306 312 311 311 310 312 309 308 307 307 307 309 310 312 311 312 313 315 318 319 322 325 326 327 326 325 327 327 326 325 325 326 327 317 319 318 322 321 316 316 316 314 315 314 312
306 311 311 310 310 310 308 308 307 308 305 309 311 311 312 310 313 313 318 318 320 324 322 326 324 326 328 329 326 329 322 324 326 323 331 317 332 321 317 318 315 317 317 316 314
306 310 311 309 308 309 308 308 308 307 310 307 310 310 310 312 310 314 313 315 321 320 323 324 325 326 329 327 325 327 324 326 328 327 328 324 323 323 316 316 314 315 315 316 315
305 311 310 308 308 308 308 308 308 310 310 309 312 313 314 313 312 312 314 313 313 317 316 315 313 319 326 324 324 323 325 325 324 328 332 328 327 325 322 318 316 315 312 315 315
305 311 309 308 308 308 308 308 311 311 300 311 312 313 313 314 314 313 315 316 317 319 321 317 317 317 323 327 324 326 327 330 332 328 332 322 322 326 318 313 315 316 311 308 309
308 309 308 307 307 308 308 309 311 299 302 308 310 312 312 312 312 314 314 314 313 315 318 320 322 320 324 327 328 327 327 328 333 331 328 315 326 325 318 318 312 309 307 306 307
310 309 307 307 308 308 309 310 309 300 304 310 310 313 312 312 312 313 314 314 313 313 317 321 322 320 322 321 324 328 330 321 314 300 314 312 310 311 310 309 311 310 308 306 305
308 307 307 308 308 307 308 308 306 303 306 309 311 309 311 312 312 312 313 312 312 313 312 316 323 320 321 319 323 325 324 326 318 321 320 315 314 322 316 314 310 308 311 306 302
307 308 308 308 308 308 309 307 305 304 306 308 306 309 309 311 311 312 309 309 310 311 311 312 315 321 321 324 327 324 328 321 321 313 321 317 316 308 316 312 310 310 311 307 303
305 306 307 308 309 307 308 305 304 307 307 308 306 309 311 312 313 312 311 310 309 311 314 313 314 320 322 317 315 323 324 325 326 320 310 313 320 306 307 306 309 312 306 305 302
305 307 307 307 307 306 301 302 303 306 306 306 309 308 307 310 312 312 312 309 310 311 313 313 314 319 322 317 313 323 320 324 313 316 314 317 316 304 304 305 307 307 304 303 302
305 307 300 304 299 301 301 301 302 303 305 305 307 308 309 309 308 311 311 312 312 313 314 313 313 317 323 323 321 324 321 322 321 322 321 318 319 311 308 306 306 305 303 303 302
298 305 303 302 297 301 300 300 302 303 304 305 307 308 308 309 310 308 312 311 313 314 313 314 316 315 317 317 319 322 322 322 322 320 321 319 315 309 307 305 303 303 302 303 303
297 302 298 300 299 301 302 300 302 301 303 304 304 306 307 306 308 309 311 311 311 309 311 308 315 314 317 315 318 319 321 321 321 320 314 311 311 308 306 301 303 303 302 303 303
293 295 300 301 299 299 298 299 300 301 301 302 302 305 307 306 307 309 308 309 310 309 308 307 310 314 320 312 317 323 320 319 320 320 319 317 316 307 305 303 303 303 302 303 303
Wind_Speed
36 36 33 31 28 26 24 24 26 23 22 23 22 21 21 19 17 15 9 13 12 4 8 6 2 4 9 5 4 3 2 2 4 5 1 4 2 1 1 6 0 1 6 6 30
38 38 38 34 30 27 26 25 27 27 23 23 23 22 20 19 15 15 25 21 12 6 12 12 3 4 4 3 2 4 1 4 2 4 2 3 3 7 4 3 1 0 2 25 33
40 39 38 39 35 30 29 27 26 28 26 23 24 24 21 18 3 9 32 28 18 14 11 11 9 2 3 1 4 5 4 3 4 2 2 1 1 1 8 4 6 9 10 17 23
43 41 39 39 38 34 31 29 27 26 27 24 23 24 23 19 12 9 29 33 26 15 10 7 3 4 5 5 2 7 7 5 5 4 3 0 2 3 6 5 4 10 23 21 18
46 44 42 41 40 36 33 31 28 27 27 25 23 24 23 8 10 3 9 35 31 20 18 6 5 5 5 5 4 4 7 9 7 7 7 5 4 4 6 3 3 13 15 17 19
49 47 45 44 42 38 35 32 30 27 27 26 23 25 16 19 13 21 5 24 31 29 19 15 8 7 4 7 5 7 8 5 7 7 6 4 4 2 3 5 7 12 14 14 19
53 50 47 45 43 40 37 34 30 27 26 26 23 26 8 22 13 27 16 10 32 34 13 22 12 8 5 6 6 4 6 1 4 4 5 5 6 9 4 5 9 10 11 13 17
54 51 49 46 44 41 38 34 30 26 24 23 21 21 10 17 15 10 30 17 20 22 21 13 15 2 2 2 2 5 1 5 4 4 6 6 12 8 8 9 10 9 9 11 12
47 54 52 48 44 42 39 34 28 24 21 19 13 10 10 9 25 16 21 18 22 24 19 6 5 5 3 6 1 4 5 4 3 8 4 7 6 9 5 10 10 10 10 11 12
40 58 55 50 44 43 39 34 24 18 17 15 5 3 5 12 10 21 15 20 12 12 5 8 6 6 4 10 20 7 9 5 7 8 6 6 12 7 3 8 11 10 11 12 13
43 59 55 49 45 45 38 28 9 3 19 18 11 2 1 10 17 17 16 7 5 10 15 15 10 15 25 22 8 8 6 13 9 6 5 13 17 13 13 4 8 9 8 11 15
44 46 49 48 48 46 42 14 29 5 12 12 4 11 4 8 5 4 19 10 10 17 16 8 21 20 17 11 14 9 14 14 4 6 6 6 15 12 8 9 9 10 11 13 10
49 57 55 51 50 46 41 35 36 23 6 13 6 7 5 5 4 10 12 9 9 17 20 21 19 17 18 17 18 15 19 12 7 2 1 2 14 12 7 16 10 9 10 11 15
47 67 57 55 46 43 30 36 38 13 4 4 13 6 8 7 4 5 19 6 7 15 24 16 23 13 18 21 15 20 10 8 10 6 7 7 7 7 7 17 12 17 17 17 14
49 59 60 61 44 31 43 43 39 4 7 11 10 10 10 11 9 5 3 2 15 16 4 6 11 23 20 22 26 15 6 7 8 9 3 5 4 6 3 8 9 17 17 17 17
47 66 61 54 35 36 41 42 21 6 8 7 12 17 15 15 5 6 5 1 3 2 8 6 6 8 19 22 20 4 8 3 4 3 7 16 11 8 9 9 7 13 13 18 17
45 70 64 51 26 48 50 20 10 7 1 9 14 21 23 12 15 10 15 14 14 13 14 7 12 9 7 18 19 13 14 4 6 5 7 9 8 18 6 10 12 13 10 9 10
74 67 60 42 48 53 35 13 10 5 7 8 12 19 23 9 14 10 15 15 15 3 8 15 12 17 19 15 11 27 20 7 7 9 7 3 11 7 11 13 9 11 9 7 9
62 56 42 45 54 51 17 17 8 7 8 11 17 17 12 12 7 7 10 12 16 17 15 8 10 8 12 9 21 20 15 9 5 2 3 5 8 8 11 11 9 9 7 7 8
48 26 24 51 52 36 14 7 4 7 11 15 6 9 10 18 11 16 14 16 16 19 8 7 5 13 19 6 20 14 24 12 3 6 4 5 6 12 11 17 11 10 15 10 8
27 11 26 49 42 16 16 4 6 5 15 11 6 6 7 10 12 10 6 2 24 18 16 7 3 3 18 19 21 5 17 5 4 4 6 3 8 7 17 10 12 16 17 12 10
6 5 40 49 11 8 10 11 5 8 2 5 6 6 10 10 14 14 12 9 15 17 17 15 5 6 26 5 10 27 17 25 14 7 4 1 14 4 9 7 12 12 8 6 7
6 7 30 32 6 7 6 5 5 5 4 4 5 4 5 8 6 6 4 6 3 15 15 13 6 8 5 8 2 23 16 21 4 3 8 8 9 0 4 7 7 8 6 7 6
7 8 4 4 1 8 13 6 6 3 4 6 6 6 6 5 3 9 9 6 4 15 15 21 7 6 10 25 16 30 27 26 28 17 25 20 24 6 5 4 3 3 6 7 8
4 5 3 8 4 14 6 7 13 6 3 5 4 5 8 5 6 5 6 5 4 2 3 14 10 15 21 20 17 28 38 34 31 36 23 32 19 4 5 6 5 5 7 6 7
5 7 3 7 12 15 6 8 18 4 7 4 7 8 7 8 8 9 9 3 3 3 3 4 3 13 15 18 19 15 25 22 28 26 7 7 9 7 5 7 5 6 7 8 8
2 4 6 10 9 8 5 8 8 11 3 6 9 7 6 5 6 5 5 4 9 6 2 1 4 3 16 7 11 22 24 26 28 26 29 18 25 7 5 8 10 10 10 12 11
Wind_Direction
228 232 232 225 222 224 227 226 222 224 225 223 220 216 212 214 213 211 216 210 221 250 203 179 227 35 61 71 17 38 25 234 219 172 210 316 132 39 53 118 42 166 157 188 164
224 227 230 228 223 222 225 226 226 224 223 221 220 213 209 207 202 221 222 221 220 219 201 182 151 64 33 70 47 43 167 239 241 173 158 288 194 162 128 137 274 297 34 144 160
221 222 225 227 226 222 224 222 224 224 223 220 217 211 208 197 222 231 223 224 218 213 215 197 176 110 87 256 202 103 241 339 296 265 167 261 268 200 128 225 208 190 159 151 160
220 218 219 222 224 221 221 219 222 222 220 219 216 211 205 182 226 208 225 217 214 216 212 205 153 168 143 195 211 113 265 272 303 320 289 314 265 235 191 222 231 181 166 157 172
217 216 215 217 219 222 219 218 221 220 219 215 213 208 188 210 222 169 235 214 208 208 204 189 166 169 199 172 118 203 199 286 299 293 285 307 273 234 233 263 107 133 165 174 182
214 211 213 214 218 218 216 216 218 220 220 215 210 203 201 224 204 229 21 202 204 200 204 193 199 190 198 175 188 207 158 213 296 304 289 257 271 145 284 128 130 156 180 186 190
212 210 211 211 215 212 212 213 214 217 216 213 206 200 214 219 212 216 231 212 204 201 186 203 219 179 158 138 237 150 153 225 225 249 246 209 266 222 194 151 166 185 191 194 206
210 207 209 205 212 210 206 209 210 212 212 211 204 194 230 227 235 223 225 225 206 212 204 202 205 211 177 135 114 153 186 184 191 168 233 159 257 251 185 162 205 204 200 204 209
229 204 204 202 205 208 202 202 205 206 206 202 191 203 220 182 213 220 199 194 196 199 210 199 131 179 138 129 74 235 215 205 266 180 207 200 248 237 176 181 212 211 209 213 224
248 206 197 196 199 201 195 194 196 196 192 184 169 172 195 213 178 212 214 200 184 164 195 191 183 189 165 187 213 187 210 193 203 190 182 215 248 262 254 191 218 219 215 212 221
244 194 193 190 195 192 176 167 151 189 180 190 195 168 74 145 177 200 195 189 130 186 203 195 204 211 198 208 214 170 221 215 219 222 160 217 247 240 253 223 240 234 231 222 221
228 208 189 187 189 183 177 181 183 145 189 217 102 185 105 138 143 206 189 184 191 207 197 199 226 218 204 202 203 189 212 219 222 171 155 252 260 249 228 239 215 215 229 232 234
231 206 188 182 181 177 181 188 176 141 134 204 211 190 154 159 168 188 180 194 208 229 199 223 220 216 196 190 200 212 209 203 203 131 36 11 269 254 241 245 239 232 224 227 222
232 194 183 177 172 179 185 177 174 160 106 214 202 240 180 150 226 170 199 171 210 222 236 216 237 214 205 203 191 216 185 194 196 144 221 171 267 239 231 243 217 234 237 238 230
205 183 176 173 175 178 178 171 172 130 201 173 174 167 150 182 130 201 170 136 207 208 186 202 192 211 219 193 194 233 148 169 195 193 147 206 257 255 188 251 234 236 236 233 226
203 176 172 175 172 174 162 165 157 157 210 160 144 169 162 186 168 130 156 98 36 155 195 238 310 265 211 202 196 133 139 80 62 206 220 210 210 223 212 211 226 238 234 232 228
210 168 173 171 169 163 157 148 183 207 229 161 169 170 180 171 182 166 181 181 185 193 224 223 254 269 198 190 187 180 161 184 197 211 228 193 209 243 209 221 219 225 242 232 221
187 166 172 166 159 155 158 168 195 127 174 163 161 168 183 145 217 175 165 199 210 181 208 221 236 213 186 204 176 193 190 174 192 196 212 87 232 241 225 232 225 225 235 270 230
156 160 155 156 156 155 163 182 173 172 168 141 144 168 179 176 159 170 203 194 195 193 195 183 228 192 214 184 183 194 201 184 89 23 84 204 282 288 254 261 248 233 231 238 247
158 144 151 154 154 157 170 158 133 150 126 140 133 181 169 176 168 180 177 206 203 188 190 173 260 200 211 185 207 184 191 196 181 158 231 241 278 234 210 221 232 216 223 219 217
136 137 149 151 153 166 181 138 135 160 127 155 151 118 163 168 185 190 205 235 198 189 195 176 203 260 198 206 181 172 198 179 171 168 211 239 251 205 224 226 226 224 211 203 198
115 116 149 152 157 172 167 146 141 140 124 117 97 100 154 153 179 191 209 208 200 174 193 194 171 230 214 199 229 199 193 193 196 200 224 239 251 150 245 281 247 228 191 190 199
103 110 145 160 158 142 132 120 100 128 137 122 117 139 159 144 131 181 171 261 211 186 190 155 202 252 203 252 287 197 209 193 156 202 211 213 253 77 315 263 217 179 182 175 196
123 130 68 133 335 125 136 130 111 62 93 104 115 90 116 143 157 163 198 203 222 206 216 166 171 217 239 215 183 191 199 194 200 207 220 219 239 267 295 287 261 166 164 174 182
55 110 106 150 187 144 108 143 135 132 101 131 65 154 146 138 169 200 175 152 216 181 309 178 188 204 242 270 199 209 196 197 197 213 208 227 233 208 251 236 234 214 168 173 191
109 142 72 103 114 133 126 178 161 117 133 184 133 178 169 147 184 187 166 148 178 76 275 337 215 176 231 239 208 216 207 198 208 212 245 172 246 196 186 122 155 189 183 195 208
90 72 109 129 134 125 168 156 165 127 42 135 143 149 179 159 130 116 107 141 158 159 147 327 16 239 222 192 231 211 198 196 208 208 214 209 223 163 187 194 186 190 196 206 207